User: anonymous   Login
Location: Brainerd
(46.3580°N, 94.2010°W)
Time: 11:20:10
(UTC-05:00)
Language:

CZ-4C R/B - Orbit

View from above orbital plane
View from above orbital plane
View from above satellite
View from above satellite

Ground track
Ground track

The orbit data is extracted from the following two-line orbital elements,

1 32290U 07055B   17080.89063527 +.00002643 +00000-0 +76318-4 0  9993
2 32290 097.5238 185.5823 0069277 083.4458 277.4665 15.34237875518430
Epoch (UTC): 21 March 2017 21:22:30
Eccentricity: 0.0069277
inclination: 97.5238°
perigee height: 416 km
apogee height: 510 km
right ascension of ascending node: 185.5823°
argument of perigee: 83.4458°
revolutions per day: 15.34237875
mean anomaly at epoch: 277.4665°
orbit number at epoch: 51843

The dashed part of the orbit path shows where the satellite is in the earth's shadow,  

DLR